TimeEST,TemperatureF,Dew PointF,Humidity,Sea Level PressureIn,VisibilityMPH,Wind Direction,Wind SpeedMPH,Gust SpeedMPH,PrecipitationIn,Events,Conditions,WindDirDegrees,DateUTC
12:53 AM,37.9,24.1,57,30.19,10.0,NW,9.2,-,N/A,,Mostly Cloudy,320,2013-03-08 05:53:00
1:53 AM,37.9,25.0,60,30.19,10.0,NNW,6.9,-,N/A,,Overcast,340,2013-03-08 06:53:00
2:53 AM,36.0,25.0,64,30.18,10.0,NW,3.5,-,N/A,,Clear,310,2013-03-08 07:53:00
3:53 AM,34.0,24.1,67,30.19,10.0,Calm,Calm,-,N/A,,Clear,0,2013-03-08 08:53:00
4:53 AM,36.0,21.9,57,30.19,10.0,NNW,8.1,20.7,N/A,,Clear,330,2013-03-08 09:53:00
5:53 AM,36.0,19.9,52,30.19,10.0,NW,16.1,26.5,N/A,,Clear,320,2013-03-08 10:53:00
6:53 AM,37.0,19.9,50,30.22,10.0,NNW,9.2,-,N/A,,Overcast,330,2013-03-08 11:53:00
7:53 AM,37.0,21.0,52,30.24,10.0,NNW,9.2,18.4,N/A,,Overcast,340,2013-03-08 12:53:00
8:53 AM,37.9,19.9,48,30.23,10.0,WNW,13.8,26.5,N/A,,Overcast,290,2013-03-08 13:53:00
9:53 AM,39.0,19.9,46,30.23,10.0,NNW,13.8,26.5,N/A,,Mostly Cloudy,330,2013-03-08 14:53:00
10:53 AM,41.0,21.0,45,30.23,10.0,NNW,17.3,32.2,N/A,,Scattered Clouds,340,2013-03-08 15:53:00
11:53 AM,41.0,21.0,45,30.23,10.0,NNW,16.1,32.2,N/A,,Clear,340,2013-03-08 16:53:00
12:53 PM,42.1,21.9,45,30.21,10.0,NNW,13.8,25.3,N/A,,Scattered Clouds,340,2013-03-08 17:53:00
1:53 PM,43.0,23.0,45,30.19,10.0,NNW,13.8,24.2,N/A,,Clear,340,2013-03-08 18:53:00
2:53 PM,44.1,24.1,45,30.18,10.0,NNW,13.8,21.9,N/A,,Clear,330,2013-03-08 19:53:00
3:53 PM,44.1,24.1,45,30.19,10.0,NNW,9.2,21.9,N/A,,Clear,340,2013-03-08 20:53:00
4:53 PM,45.0,24.1,44,30.21,10.0,North,10.4,20.7,N/A,,Clear,350,2013-03-08 21:53:00
5:53 PM,43.0,25.0,49,30.25,10.0,Variable,6.9,-,N/A,,Clear,0,2013-03-08 22:53:00
6:53 PM,41.0,25.0,53,30.26,10.0,NNW,5.8,-,N/A,,Clear,330,2013-03-08 23:53:00
7:53 PM,39.0,25.0,57,30.28,10.0,NW,4.6,-,N/A,,Clear,310,2013-03-09 00:53:00
8:53 PM,39.0,25.0,57,30.28,10.0,NNW,5.8,-,N/A,,Clear,340,2013-03-09 01:53:00
9:53 PM,39.0,24.1,55,30.29,10.0,NNW,3.5,-,N/A,,Clear,330,2013-03-09 02:53:00
10:53 PM,37.9,24.1,57,30.28,10.0,West,3.5,-,N/A,,Clear,280,2013-03-09 03:53:00
11:53 PM,39.9,24.1,53,30.28,10.0,NW,6.9,-,N/A,,Clear,320,2013-03-09 04:53:00